GW0011 Weather Reports


time (UTC)temp
F
wind
direction
speed
knots
gust
knots
rain 1hr
in
rain 24hr
in
rain mn
in
humidity
%
barometer
mb
20260507180044 52 38 1.7 11.3 0.11 1.41 1.41 94 1010.0
20260507174549 52 78 2.6 8.7 0.11 1.40 1.40 94 1010.3
20260507173054 52 254 3.5 9.6 0.09 1.37 1.37 94 1010.9
20260507171604 53 5 1.7 7.0 0.08 1.33 1.33 94 1011.1
20260507170045 53 79 3.5 7.8 0.13 1.30 1.30 94 1011.1
20260507164600 53 51 2.6 8.7 0.20 1.29 1.29 94 1011.1
20260507163045 54 0 0.9 7.0 0.29 1.28 1.28 94 1010.9
20260507161545 54 28 3.5 9.6 0.36 1.25 1.25 94 1010.5
20260507160049 54 15 5.2 10.4 0.38 1.16 1.16 95 1011.1
20260507154546 54 24 1.7 8.7 0.43 1.09 1.09 95 1010.6
20260507153048 55 249 3.5 12.2 0.35 0.99 0.99 94 1010.8
20260507151542 55 323 1.7 8.7 0.26 0.88 0.88 94 1011.0
20260507150045 56 331 3.5 12.2 0.18 0.79 0.79 94 1011.2
20260507144544 56 340 1.7 13.9 0.06 0.66 0.66 94 1011.1
20260507143046 57 338 6.1 13.9 0.05 0.64 0.64 93 1010.8
20260507141548 58 337 1.7 9.6 0.04 0.62 0.62 94 1010.8
20260507140047 59 42 3.5 9.6 0.04 0.61 0.61 95 1010.5
20260507134553 59 335 3.5 7.8 0.07 0.60 0.60 95 1010.5
20260507133046 59 352 1.7 7.0 0.07 0.58 0.58 95 1010.4
20260507131544 59 32 2.6 7.8 0.07 0.58 0.58 94 1010.3
20260507130056 59 57 3.5 9.6 0.11 0.57 0.57 94 1010.6
20260507124544 59 228 2.6 8.7 0.13 0.52 0.52 94 1010.8
20260507123046 59 17 3.5 11.3 0.18 0.52 0.52 94 1010.7
20260507121545 60 251 3.5 8.7 0.26 0.51 0.51 93 1010.8
20260507120043 62 300 4.3 15.6 0.32 0.46 0.46 92 1010.7
20260507114542 65 0 0.9 3.5 0.27 0.40 0.40 94 1010.3
20260507113040 65 269 1.7 5.2 0.23 0.33 0.33 94 1010.4
20260507111545 65 262 1.7 5.2 0.21 0.25 0.25 93 1010.3
20260507110059 65 278 0.9 3.5 0.14 0.14 0.14 93 1010.1
20260507104545 66 257 2.6 5.2 0.13 0.13 0.13 93 1010.1
20260507103041 66 257 0.9 7.0 0.10 0.10 0.10 92 1009.9
20260507101549 67 264 4.3 7.8 0.03 0.03 0.03 90 1010.0
20260507100048 67 261 1.7 5.2 0.00 0.00 0.00 88 1009.4
20260507094545 68 230 1.7 7.8 0.00 0.00 0.00 87 1009.2
20260507093047 68 197 1.7 5.2 0.00 0.00 0.00 87 1009.0
20260507091555 68 214 1.7 7.8 0.00 0.00 0.00 86 1009.0
20260507090046 68 177 2.6 7.8 0.00 0.00 0.00 86 1009.4
20260507084543 68 191 1.7 7.8 0.00 0.00 0.00 85 1009.5
20260507083045 68 213 2.6 6.1 0.00 0.00 0.00 85 1009.8
20260507081545 68 192 2.6 6.1 0.00 0.00 0.00 84 1009.8
20260507080044 68 196 1.7 5.2 0.00 0.00 0.00 83 1009.9
20260507074545 68 173 1.7 7.8 0.00 0.00 0.00 83 1010.2
20260507073048 68 0 1.7 6.1 0.00 0.00 0.00 83 1010.0
20260507071548 68 211 1.7 6.1 0.00 0.00 0.00 84 1010.1
20260507070057 68 143 1.7 6.1 0.00 0.00 0.00 85 1009.8
20260507064544 68 115 2.6 6.1 0.00 0.00 0.00 84 1009.6
20260507063043 69 0 2.6 7.0 0.00 0.00 0.00 83 1009.8
20260507061541 69 108 1.7 5.2 0.00 0.00 0.00 82 1010.2
20260507060100 69 215 1.7 5.2 0.00 0.00 0.00 82 1010.8
20260507054552 70 167 1.7 5.2 0.00 0.00 0.00 80 1010.8
20260507053050 70 0 0.9 5.2 0.00 0.00 0.00 78 1010.9
20260507051545 71 204 2.6 7.8 0.00 0.00 0.00 77 1011.0
20260507050044 72 199 1.7 6.1 0.00 0.00 0.00 75 1010.8
20260507044541 72 194 2.6 6.1 0.00 0.00 0.00 73 1010.7
20260507043046 72 186 2.6 7.0 0.00 0.00 0.00 74 1010.8
20260507041547 72 153 1.7 5.2 0.00 0.00 0.00 74 1011.0
20260507040044 72 160 0.9 4.3 0.00 0.00 0.00 75 1010.8
20260507034554 72 0 0.9 3.5 0.00 0.00 0.00 74 1010.3
20260507033048 72 142 1.7 4.3 0.00 0.00 0.00 74 1010.5
20260507031543 72 153 0.9 4.3 0.00 0.00 0.00 74 1010.4
20260507030045 72 158 0.0 2.6 0.00 0.00 0.00 73 1010.6
20260507024552 73 158 0.0 2.6 0.00 0.00 0.00 71 1010.8
20260507023042 74 159 1.7 4.3 0.00 0.00 0.00 71 1011.1
20260507021548 74 132 0.9 3.5 0.00 0.00 0.00 71 1010.9
20260507020052 74 117 1.7 6.1 0.00 0.00 0.00 71 1010.9
20260507014545 74 140 0.9 5.2 0.00 0.00 0.00 71 1011.2
20260507013047 73 111 1.7 5.2 0.00 0.00 0.00 71 1011.0
20260507011546 74 98 1.7 5.2 0.00 0.00 0.00 71 1011.0
20260507010104 74 0 0.0 1.7 0.00 0.00 0.00 70 1011.0
20260507004544 74 161 0.0 3.5 0.00 0.00 0.00 70 1011.1
20260507003043 75 173 0.0 3.5 0.00 0.00 0.00 69 1010.8
20260507001551 75 198 0.0 3.5 0.00 0.00 0.00 68 1010.7
20260507000048 76 0 0.9 3.5 0.00 0.00 0.00 68 1010.3
20260506234545 76 185 0.9 4.3 0.00 0.00 0.00 67 1010.5
20260506233057 77 184 1.7 4.3 0.00 0.00 0.00 67 1010.1
20260506231541 77 159 0.9 4.3 0.00 0.00 0.00 66 1010.2
20260506230045 78 207 0.9 2.6 0.00 0.00 0.00 65 1009.9
20260506224549 78 194 1.7 7.8 0.00 0.00 0.00 64 1010.1
20260506223045 78 196 0.9 10.4 0.00 0.00 0.00 64 1010.0
20260506221547 78 164 2.6 7.8 0.00 0.00 0.00 64 1010.0
20260506220049 78 155 3.5 8.7 0.00 0.00 0.00 64 1010.1
20260506214540 78 138 2.6 8.7 0.00 0.00 0.00 64 1010.0
20260506213046 79 221 1.7 13.9 0.00 0.00 0.00 63 1009.8
20260506211551 79 76 6.1 13.0 0.00 0.00 0.00 62 1009.5
20260506210046 79 114 5.2 10.4 0.00 0.00 0.00 62 1010.1
20260506204546 78 219 3.5 12.2 0.00 0.00 0.00 62 1010.1
20260506203047 78 257 7.0 13.9 0.00 0.00 0.00 62 1010.4
20260506201547 78 157 6.1 14.8 0.00 0.00 0.00 62 1010.8
20260506200044 78 169 6.1 14.8 0.00 0.00 0.00 63 1010.9
20260506194544 78 167 6.1 17.4 0.00 0.00 0.00 65 1011.2
20260506193047 78 140 5.2 13.9 0.00 0.00 0.00 65 1011.4
20260506191548 77 205 6.1 13.0 0.00 0.00 0.00 65 1011.3
20260506190047 76 143 4.3 13.0 0.00 0.00 0.00 66 1011.4
20260506184552 76 211 6.1 15.6 0.00 0.00 0.00 66 1011.8
20260506183044 77 110 3.5 10.4 0.00 0.00 0.00 66 1011.7
20260506181544 76 246 7.0 17.4 0.00 0.00 0.00 66 1012.0